Weather in Baimak

Russia / Republic of Bashkortostan     52°35′28″N   58°18′40″E
temp.,
°C
wind,
m/s
gust,
m/s
humid.,
%
clouds,
%
prec.,
mm/h
press.,
hPa
HPBL,
m
3 march, wed
wed323:00−12wsw71589100 0.0 1012615
02:00−9sw71589100 0.0 1009617
05:00−9sw61492100 0.0 1008486
08:00−7sw61393100 0.1 1005523
11:00−3sw81391100 0.2 1005978
14:00−2sw81188100 0.2 10041006
17:00−3sw71191100 0.3 1003793
20:00−5sw4996100 0.1 1003251
4 march, thu
thu423:00−7sw479797 0.1 1003121
02:00−6wsw379795 0.1 1002150
05:00−10w479381 0.1 1004116
08:00−13w511930 0.0 1005228
11:00−9wnw7138611 0.0 1007556
14:00−7w812830 0.0 1008865
17:00−8w7138511 0.0 1008561
20:00−11sw715920 0.0 1009459
5 march, fri
fri523:00−8sw9179245 0.1 1008869
02:00−5wsw101888100 0.1 1005972
05:00−4wsw10189094 0.1 1006829
08:00−4wsw9179079 0.1 1007820
11:00−3wsw10178787 0.1 10081016
14:00−2sw111789100 0.1 10071067
17:00−2sw111992100 0.6 10071126
20:00−1sw101792100 0.6 10061028
6 march, sat
sat623:00−1wsw10179297 0.8 1005964
02:00−1wsw10179194 0.5 1006938
05:00−5wnw6128992 1.0 1010437
08:00−12nw349098 0.0 101360
11:00−10nw127783 0.0 101493
14:00−7s1170100 0.0 1014175
17:00−7se2480100 0.0 1012215
20:00−8e4996100 1.3 1009308
7 march, sun
sun723:00−8e3596100 4.5 1006164
02:00−1sw61496100 1.8 1003883
05:00−7wnw61190100 2.1 1004318
08:00−11wnw51190100 0.0 1007274
11:00−10wnw61187100 0.0 1009649
14:00−9w6980100 0.0 1010904
17:00−11w598369 0.0 1012532
20:00−17w58930 0.0 1014129